Regional Weather Roundup
Issued by NWS

Home | Current Version | Previous Version | Text Only | Print | Product List | Glossary On
Versions: 1 2 3 4 5 6 7 8 9 10 11 12 13 14 15 16 17 18 19 20 21 22 23 24 25 26 27 28 29 30 31 32 33 34 35 36 37 38 39 40 41 42 43 44 45 46 47 48 49 50
000
ASUS44 KJAN 251410
RWRMS

MISSISSIPPI HOURLY WEATHER ROUNDUP
NATIONAL WEATHER SERVICE JACKSON MS
900 AM CDT SUN JUN 25 2017

NOTE: "FAIR: INDICATES FEW OR NO CLOUDS BELOW 12,000 FEET WITH NO
SIGNIFICANT WEATHER AND/OR OBSTRUCTIONS TO VISIBILITY.

MSZ001>002-007>008-010>013-018>021-025>028-034>036-251500-
NORTHWEST MISSISSIPPI

CITY           SKY/WX    TMP DP  RH WIND       PRES   REMARKS
BATESVILLE     FAIR      73  60  62 CALM      30.25R
CLARKSDALE       N/A     75  63  64 N3        30.25R
CLEVELAND      FAIR      74  62  64 NE6       30.25R
GREENWOOD      PTSUNNY   72  64  76 N5        30.22R
GREENVILLE     CLOUDY    73  62  68 NE9       30.22S
OLIVE BRANCH   MOSUNNY  N/A N/A N/A CALM      30.24R
OXFORD         FAIR      72  55  56 NE7       30.27R
TUNICA           N/A     72  57  60 NE6       30.26R
WINONA         FAIR      70  62  77 N6        30.23R
$$

MSZ003>006-009-014>017-022>024-029>033-037>039-251500-
NORTHEAST MISSISSIPPI

CITY           SKY/WX    TMP DP  RH WIND       PRES   REMARKS
COLUMBUS AFB   CLOUDY    71  65  81 N6        30.21R
CORINTH          N/A     72  57  60 NE7       30.24R
GOLDN TRIANGLE PTSUNNY   72  61  68 N7        30.17R
STARKVILLE     FAIR      70  61  73 N6        30.22S
TUPELO         CLOUDY    70  58  65 N7        30.23R
$$

MSZ040-058-251500-
CENTRAL MISSISSIPPI

CITY           SKY/WX    TMP DP  RH WIND       PRES   REMARKS
JACKSON INTL   CLOUDY    74  64  71 NE6       30.22R
JACKSON HAWKNS CLOUDY    72  66  81 VRB3      30.23R
MADISON        PTSUNNY   68  64  88 CALM      30.21R
MERIDIAN KEY   CLOUDY    76  65  68 NE10      30.19R
MERIDIAN NAS   CLOUDY    74  62  66 NE7       30.19R
RAYMOND        DRIZZLE   72  68  88 CALM      30.22R
VICKSBURG VKS  MOSUNNY   73  66  78 E8        30.19R
$$

MSZ059>079-251500-
SOUTH MISSISSIPPI

CITY           SKY/WX    TMP DP  RH WIND       PRES   REMARKS
COLUMBIA       PTSUNNY   75  68  78 NE6G12    30.20R
HATTIESBURG    CLOUDY    76  67  73 N6        30.17R
LAUREL         CLOUDY    75  67  76 N8        30.18R
MCCOMB         CLOUDY    76  65  68 VRB7      30.18R
NATCHEZ        CLOUDY    74  67  78 NE9       30.20R
PINE BELT      CLOUDY    73  64  73 N9G16     30.20R
$$

MSZ080>082-251500-
COASTAL MISSISSIPPI

CITY           SKY/WX    TMP DP  RH WIND       PRES   REMARKS
BAY ST LOUIS   SUNNY     79  73  83 N6        30.12S
BILOXI         SUNNY     80  73  79 NE7       30.11S
PASCAGOULA     PTSUNNY   81  73  76 N7        30.12R
GULFPORT       SUNNY     81  73  76 N9        30.11S
$$

LAZ007>009-015>016-023>026-251500-
NORTHEAST LOUISIANA

CITY           SKY/WX    TMP DP  RH WIND       PRES   REMARKS
BASTROP        RAIN      68  67  98 CALM      30.24S
TALLULAH/VBURG LGT RAIN  71  68  90 E5        30.22R
VIDALIA        CLOUDY    74  69  82 NE8       30.18R
$$



USA.gov is the U.S. government's official web portal to all federal, state and local government web resources and services.